Location: Newark
(29.9790°N, 31.1340°E)
Time: 11:23:15
(UTC+00:00)

Vanguard 3 - Pass Details

Date: 18 January 2020
Orbit: 508 x 3263 km, 33.3° (Epoch: 25 February)

Event Time Altitude Azimuth Distance (km) Brightness Sun altitude
Rises 15:45:31 0° 229° (SW) 7,116 13.5 -6.0°
Reaches altitude 10° 15:50:19 10° 226° (SW) 6,179 12.9 -6.9°
Maximum altitude 16:09:46 61° 151° (SSE) 3,187 10.1 -10.9°
Enters shadow 16:22:18 16° 78° (ENE) 4,342 10.2 -13.5°
